TimeAKST,TemperatureF,Dew PointF,Humidity,Sea Level PressureIn,VisibilityMPH,Wind Direction,Wind SpeedMPH,Gust SpeedMPH,PrecipitationIn,Events,Conditions,WindDirDegrees,DateUTC
12:16 AM,-9.4,-9999,N/A,29.63,10.0,Calm,Calm,-,N/A,,Clear,0,2013-02-03 09:16:00
12:36 AM,-9.4,-9999,N/A,29.63,10.0,Calm,Calm,-,N/A,,Clear,0,2013-02-03 09:36:00
12:56 AM,-11.2,-9999,N/A,29.61,10.0,Calm,Calm,-,N/A,,Clear,0,2013-02-03 09:56:00
1:16 AM,-11.2,-9999,N/A,29.61,10.0,Calm,Calm,-,N/A,,Clear,0,2013-02-03 10:16:00
1:36 AM,-11.2,-27.4,45,29.61,10.0,Calm,Calm,-,N/A,,Mostly Cloudy,0,2013-02-03 10:36:00
1:56 AM,-9.4,-22.0,54,29.60,10.0,Calm,Calm,-,N/A,,Overcast,0,2013-02-03 10:56:00
2:16 AM,-9.4,-20.2,59,29.60,10.0,Calm,Calm,-,N/A,,Overcast,0,2013-02-03 11:16:00
2:36 AM,-9.4,-9999,N/A,29.59,10.0,Calm,Calm,-,N/A,,Mostly Cloudy,0,2013-02-03 11:36:00
2:56 AM,-11.2,-9999,N/A,29.58,10.0,Calm,Calm,-,N/A,,Scattered Clouds,0,2013-02-03 11:56:00
3:16 AM,-9.4,-9999,N/A,29.57,10.0,Calm,Calm,-,N/A,,Mostly Cloudy,0,2013-02-03 12:16:00
3:36 AM,-7.6,-9999,N/A,29.56,10.0,Calm,Calm,-,N/A,,Overcast,0,2013-02-03 12:36:00
3:56 AM,-9.4,-9999,N/A,29.55,10.0,Calm,Calm,-,N/A,,Overcast,0,2013-02-03 12:56:00
4:16 AM,-7.6,-27.4,38,29.54,10.0,Calm,Calm,-,N/A,,Overcast,0,2013-02-03 13:16:00
4:36 AM,-7.6,-23.8,45,29.53,10.0,North,3.5,-,N/A,,Overcast,350,2013-02-03 13:36:00
4:56 AM,-7.6,-18.4,59,29.53,10.0,Calm,Calm,-,N/A,,Overcast,0,2013-02-03 13:56:00
5:16 AM,-7.6,-14.8,71,29.52,10.0,Calm,Calm,-,N/A,,Overcast,0,2013-02-03 14:16:00
5:36 AM,-7.6,-9.4,92,29.51,10.0,Calm,Calm,-,N/A,,Overcast,0,2013-02-03 14:36:00
5:56 AM,-7.6,-9999,N/A,29.50,10.0,Calm,Calm,-,N/A,,Overcast,0,2013-02-03 14:56:00
6:16 AM,-7.6,-9999,N/A,29.49,10.0,Calm,Calm,-,N/A,,Overcast,0,2013-02-03 15:16:00
6:36 AM,-7.6,-9999,N/A,29.49,10.0,Calm,Calm,-,N/A,,Overcast,0,2013-02-03 15:36:00
6:56 AM,-7.6,-27.4,38,29.48,10.0,Calm,Calm,-,N/A,,Overcast,0,2013-02-03 15:56:00
7:16 AM,-7.6,-23.8,45,29.47,10.0,Calm,Calm,-,N/A,,Overcast,0,2013-02-03 16:16:00
7:36 AM,-5.8,-16.6,60,29.47,10.0,Calm,Calm,-,N/A,,Overcast,0,2013-02-03 16:36:00
7:56 AM,-7.6,-16.6,65,29.46,10.0,Calm,Calm,-,N/A,,Overcast,0,2013-02-03 16:56:00
8:16 AM,-7.6,-9999,N/A,29.46,10.0,Calm,Calm,-,N/A,,Overcast,0,2013-02-03 17:16:00
8:36 AM,-7.6,-9999,N/A,29.45,10.0,Calm,Calm,-,N/A,,Overcast,0,2013-02-03 17:36:00
8:56 AM,-7.6,-9999,N/A,29.44,10.0,Calm,Calm,-,N/A,,Overcast,0,2013-02-03 17:56:00
9:16 AM,-7.6,-29.2,34,29.44,10.0,Calm,Calm,-,N/A,,Mostly Cloudy,0,2013-02-03 18:16:00
9:36 AM,-7.6,-25.6,41,29.44,10.0,North,3.5,-,N/A,,Mostly Cloudy,360,2013-02-03 18:36:00
9:56 AM,-7.6,-23.8,45,29.44,10.0,Calm,Calm,-,N/A,,Overcast,0,2013-02-03 18:56:00
10:16 AM,-7.6,-11.2,84,29.44,10.0,Calm,Calm,-,N/A,,Overcast,0,2013-02-03 19:16:00
10:36 AM,-7.6,-50.8,11,29.43,10.0,Calm,Calm,-,N/A,,Mostly Cloudy,0,2013-02-03 19:36:00
10:56 AM,-7.6,-9999,N/A,29.43,10.0,Calm,Calm,-,N/A,,Mostly Cloudy,0,2013-02-03 19:56:00
11:16 AM,-7.6,-9999,N/A,29.42,10.0,Calm,Calm,-,N/A,,Scattered Clouds,0,2013-02-03 20:16:00
11:36 AM,-7.6,-9999,N/A,29.42,10.0,Calm,Calm,-,N/A,,Mostly Cloudy,0,2013-02-03 20:36:00
11:56 AM,-7.6,-29.2,34,29.42,10.0,Calm,Calm,-,N/A,,Overcast,0,2013-02-03 20:56:00
12:16 PM,-5.8,-22.0,46,29.42,10.0,Calm,Calm,-,N/A,,Overcast,0,2013-02-03 21:16:00
12:36 PM,-5.8,-18.4,55,29.41,10.0,Calm,Calm,-,N/A,,Overcast,0,2013-02-03 21:36:00
12:56 PM,-5.8,-9999,N/A,29.40,10.0,Calm,Calm,-,N/A,,Overcast,0,2013-02-03 21:56:00
1:16 PM,-4.0,-29.2,29,29.40,10.0,Calm,Calm,-,N/A,,Overcast,0,2013-02-03 22:16:00
1:36 PM,-4.0,-31.0,26,29.40,10.0,Calm,Calm,-,N/A,,Scattered Clouds,0,2013-02-03 22:36:00
1:56 PM,-2.2,-25.6,32,29.40,10.0,North,4.6,-,N/A,,Clear,10,2013-02-03 22:56:00
2:16 PM,-4.0,-20.2,46,29.40,10.0,Calm,Calm,-,N/A,,Clear,0,2013-02-03 23:16:00
2:36 PM,-4.0,-14.8,60,29.39,10.0,North,3.5,-,N/A,,Clear,10,2013-02-03 23:36:00
2:56 PM,-4.0,-11.2,71,29.39,10.0,NNE,4.6,-,N/A,,Clear,20,2013-02-03 23:56:00
3:16 PM,-4.0,-43.6,13,29.38,10.0,NE,4.6,-,N/A,,Scattered Clouds,40,2013-02-04 00:16:00
3:36 PM,-4.0,-9999,N/A,29.38,10.0,ENE,3.5,-,N/A,,Mostly Cloudy,70,2013-02-04 00:36:00
3:56 PM,-4.0,-31.0,26,29.38,10.0,ENE,4.6,-,N/A,,Mostly Cloudy,70,2013-02-04 00:56:00
4:16 PM,-4.0,-27.4,32,29.38,10.0,Calm,Calm,-,N/A,,Overcast,0,2013-02-04 01:16:00
4:36 PM,-4.0,-22.0,42,29.38,10.0,Calm,Calm,-,N/A,,Overcast,0,2013-02-04 01:36:00
4:56 PM,-5.8,-18.4,55,29.38,10.0,Calm,Calm,-,N/A,,Mostly Cloudy,0,2013-02-04 01:56:00
5:16 PM,-4.0,-9.4,78,29.38,10.0,Calm,Calm,-,N/A,,Overcast,0,2013-02-04 02:16:00
5:36 PM,-5.8,-9999,N/A,29.38,9.0,Calm,Calm,-,N/A,,Overcast,0,2013-02-04 02:36:00
5:56 PM,-4.0,-9999,N/A,29.38,10.0,NNE,4.6,-,N/A,,Overcast,20,2013-02-04 02:56:00
6:16 PM,-2.2,-29.2,27,29.38,10.0,North,3.5,-,N/A,,Overcast,10,2013-02-04 03:16:00
6:36 PM,-2.2,-25.6,32,29.38,10.0,North,3.5,-,N/A,,Overcast,10,2013-02-04 03:36:00
6:56 PM,-4.0,-20.2,46,29.39,10.0,Calm,Calm,-,N/A,,Overcast,0,2013-02-04 03:56:00
7:16 PM,-2.2,-11.2,66,29.39,10.0,Calm,Calm,-,N/A,,Overcast,0,2013-02-04 04:16:00
7:36 PM,-2.2,-9.4,71,29.40,10.0,Calm,Calm,-,N/A,,Overcast,0,2013-02-04 04:36:00
7:56 PM,-2.2,-9999,N/A,29.40,10.0,Calm,Calm,-,N/A,,Overcast,0,2013-02-04 04:56:00
8:16 PM,-2.2,-29.2,27,29.40,9.0,Calm,Calm,-,N/A,,Overcast,0,2013-02-04 05:16:00
8:36 PM,-0.4,-18.4,43,29.40,5.0,Calm,Calm,-,N/A,,Overcast,0,2013-02-04 05:36:00
8:56 PM,-2.2,-20.2,42,29.41,3.0,Calm,Calm,-,N/A,,Overcast,0,2013-02-04 05:56:00
9:16 PM,-0.4,-18.4,43,29.41,5.0,Calm,Calm,-,N/A,,Overcast,0,2013-02-04 06:16:00
9:36 PM,-0.4,-11.2,60,29.42,4.0,Calm,Calm,-,N/A,,Overcast,0,2013-02-04 06:36:00
9:56 PM,-2.2,-9.4,71,29.42,5.0,Calm,Calm,-,N/A,,Overcast,0,2013-02-04 06:56:00
10:16 PM,-2.2,-115.6,4,29.43,9.0,Calm,Calm,-,N/A,,Mostly Cloudy,0,2013-02-04 07:16:00
10:36 PM,-2.2,-27.4,29,29.43,10.0,Calm,Calm,-,N/A,,Partly Cloudy,0,2013-02-04 07:36:00
10:56 PM,-2.2,-25.6,32,29.44,9.0,Calm,Calm,-,N/A,,Mostly Cloudy,0,2013-02-04 07:56:00
11:16 PM,-2.2,-25.6,32,29.44,6.0,Calm,Calm,-,N/A,,Overcast,0,2013-02-04 08:16:00
11:36 PM,-2.2,-16.6,50,29.44,10.0,Calm,Calm,-,N/A,,Overcast,0,2013-02-04 08:36:00
11:56 PM,-2.2,-2.2,100,29.44,10.0,Calm,Calm,-,N/A,,Overcast,0,2013-02-04 08:56:00